Time,B instrument,Bx,By,Bz,sigma B,Ion instrument,Status,Tp_par,Tp_perp,carrot,r_sun,clat,clong,earth_he_angle,n_p,vp_x,vp_y,vp_z,vth_p_par,vth_p_perp
1980-04-29 00:13:27,-1,nan,nan,nan,nan,1,3,nan,nan,1694,0.62618983,-6.4752731,97.301514,280.72339,nan,326.806,-10.3999,7.12385,nan,nan
1980-04-29 00:35:03,-1,nan,nan,nan,nan,1,3,nan,nan,1694,0.62601399,-6.4767513,97.114014,280.73511,nan,325.686,-10.7663,6.7931,nan,nan
1980-04-29 00:56:39,-1,nan,nan,nan,nan,1,3,nan,nan,1694,0.62584615,-6.4781618,96.925781,280.74609,nan,327.09,-2.3676,1.56944,nan,nan
1980-04-29 01:18:15,-1,nan,nan,nan,nan,1,3,nan,nan,1694,0.62567025,-6.4796381,96.738037,280.75757,nan,340.746,19.4953,-13.1645,nan,nan
1980-04-29 01:39:51,-1,nan,nan,nan,nan,1,3,nan,nan,1694,0.62550229,-6.4810476,96.553711,280.76855,nan,322.102,-25.8125,-0.188284,nan,nan
1980-04-29 02:01:27,-1,nan,nan,nan,nan,1,3,nan,nan,1694,0.62532634,-6.4825239,96.366211,280.78027,nan,315.788,-21.3088,-7.49286,nan,nan
1980-04-29 02:23:03,-1,nan,nan,nan,nan,1,3,nan,nan,1694,0.62515026,-6.4839983,96.178467,280.79175,nan,320.944,-14.2089,8.87786,nan,nan
1980-04-29 02:44:39,-1,nan,nan,nan,nan,1,3,nan,nan,1694,0.62498224,-6.4854069,95.990479,280.80298,nan,311.55,5.37656,-13.7807,nan,nan
1980-04-29 03:06:15,-1,nan,nan,nan,nan,1,3,nan,nan,1694,0.62480611,-6.4868813,95.806885,280.8147,nan,310.19,6.99403,-15.0055,nan,nan
1980-04-29 03:27:51,-1,nan,nan,nan,nan,1,3,nan,nan,1694,0.62463796,-6.488287,95.618652,280.82568,nan,322.359,16.7149,-11.6632,nan,nan
1980-04-29 03:49:27,-1,nan,nan,nan,nan,1,3,nan,nan,1694,0.62446177,-6.4897594,95.431152,280.8374,nan,319.638,6.9345,1.08263,nan,nan
1980-04-29 04:32:39,-1,nan,nan,nan,nan,1,3,nan,nan,1694,0.62411726,-6.4926357,95.059326,280.86011,nan,325.752,-35.472,19.1192,nan,nan
1980-04-29 05:57:55,-1,nan,nan,nan,nan,1,4,nan,nan,1694,0.62343574,-6.4983206,94.31958,280.90552,nan,nan,nan,nan,nan,nan
1980-04-29 05:59:16,-1,nan,nan,nan,nan,1,3,nan,nan,1694,0.6234197,-6.4984541,94.308838,280.90649,nan,354.506,-39.2035,-16.9429,nan,nan
1980-04-29 06:00:37,1,8.37143,-2.78571,3.64286,0.76532,1,1,177037.0,101598.0,1694,0.62341166,-6.4985218,94.297852,280.90723,20.6268,352.412,-41.4675,-12.3591,54.0618,40.9544
1980-04-29 06:01:58,1,6.94286,-5.62857,4.51429,0.560612,1,1,129693.0,109283.0,1694,0.62340367,-6.4985886,94.286621,280.90771,19.4802,355.005,-33.1647,-13.9825,46.2718,42.475
1980-04-29 06:03:03,1,7.3,-5.125,4.8875,0.433554,1,1,121019.0,109247.0,1694,0.62338763,-6.4987211,94.275879,280.90869,19.8189,356.993,-32.6751,-16.0772,44.6976,42.4681
1980-04-29 06:04:24,1,7.7,-4.125,4.575,1.14182,1,1,108772.0,109388.0,1694,0.62337959,-6.4987879,94.264648,280.90918,19.2571,350.896,-38.0756,-12.1039,42.3757,42.4954
1980-04-29 06:05:45,1,8.05714,-6.51429,0.314286,1.03884,1,1,113175.0,117086.0,1694,0.62337154,-6.4988546,94.253662,280.90991,18.3776,352.416,-28.5259,1.01158,43.2248,43.9653
1980-04-29 06:07:06,1,8.15714,-6.24286,-0.514286,0.404061,1,1,134641.0,114242.0,1694,0.62335551,-6.4989882,94.24292,280.91089,18.3102,353.004,-30.4224,0.24524,47.1462,43.428
1980-04-29 06:08:27,1,8.2,-5.82857,-0.571429,0.780894,1,1,121838.0,117768.0,1694,0.62334752,-6.4990549,94.227783,280.91138,18.6792,354.876,-30.0236,-0.296041,44.8487,44.0932
1980-04-29 06:09:48,1,8.1,-7.24286,-0.0428571,0.271052,1,1,105953.0,114572.0,1694,0.62333947,-6.4991217,94.216553,280.91187,18.2992,355.454,-28.7102,-1.62225,41.8229,43.4908
1980-04-29 06:11:09,1,8.23333,-6.08333,0.466667,0.30957,1,1,139421.0,111015.0,1694,0.62332344,-6.4992552,94.206055,280.91309,18.544,356.332,-32.3453,-3.9985,47.9758,42.8103
1980-04-29 06:12:30,1,7.975,-4.45,1.825,0.777014,1,1,157189.0,119799.0,1694,0.62331539,-6.4993219,94.194824,280.91357,18.6943,352.726,-35.663,-7.64844,50.9412,44.4717
1980-04-29 06:13:51,1,8.05714,-5.24286,2.68571,0.593158,1,1,105399.0,121187.0,1694,0.62330735,-6.4993887,94.183594,280.91406,17.7831,350.937,-32.2774,-11.9899,41.7135,44.7286
1980-04-29 06:15:12,1,7.52857,-6.62857,2.95714,0.573923,1,1,122368.0,118434.0,1694,0.62329131,-6.4995222,94.173096,280.91528,18.7113,353.092,-30.0215,-11.2703,44.9461,44.2177
1980-04-29 06:16:33,1,8.02857,-5.08571,-0.342857,0.478091,1,1,142474.0,121627.0,1694,0.62328333,-6.499589,94.157959,280.91577,18.2989,350.561,-33.1895,0.57748,48.4982,44.8098
1980-04-29 06:17:54,-1,nan,nan,nan,nan,1,4,nan,nan,1694,0.62327528,-6.4996557,94.146729,280.91626,nan,nan,nan,nan,nan,nan
1980-04-29 06:19:15,1,6.47143,-7.61429,2.95714,0.531843,1,1,111351.0,105218.0,1694,0.62325925,-6.4997892,94.135986,280.91724,17.8417,356.718,-18.8443,-11.7657,42.8751,41.6776
1980-04-29 06:20:36,1,3.01429,-5.77143,6.62857,0.779848,1,1,145009.0,126411.0,1694,0.6232512,-6.499856,94.125,280.91797,17.9622,364.012,-28.2006,-24.5287,48.9277,45.6825
1980-04-29 06:21:57,1,2.28571,-5.65714,6.98571,0.643016,1,1,187452.0,117790.0,1694,0.62324315,-6.4999228,94.11377,280.91846,19.2577,370.342,-34.764,-25.5258,55.6292,44.0974
1980-04-29 06:23:18,1,2.8125,-5.3375,6.5,0.442648,1,1,176747.0,113441.0,1694,0.62322712,-6.5000553,94.103027,280.91943,18.7911,365.667,-31.633,-22.2732,54.0174,43.2755
1980-04-29 06:24:39,1,5.25714,-7.08571,4.64286,0.385979,1,1,127130.0,98837.2,1694,0.62321913,-6.5001221,94.087891,280.91992,18.1477,360.043,-28.8111,-17.3289,45.8122,40.3941
1980-04-29 06:26:00,1,1.98571,-4.01429,7.61429,0.540597,1,1,179689.0,114605.0,1694,0.6232031,-6.5002556,94.077393,280.92114,18.5149,370.627,-35.727,-25.3437,54.4652,43.497
1980-04-29 06:27:21,1,1.75714,-2.04286,9.31429,0.614452,1,1,157982.0,102834.0,1694,0.62319505,-6.5003223,94.066162,280.92163,16.6455,373.419,-45.5284,-31.5788,51.0695,41.2028
1980-04-29 06:28:42,1,3.275,-2.9875,8.05,0.274716,1,1,150437.0,110022.0,1694,0.62318701,-6.5003891,94.054932,280.92212,18.8381,366.121,-39.7004,-28.386,49.8351,42.6184
1980-04-29 06:30:03,1,3.82857,-2.87143,8.14286,0.330738,1,1,144546.0,110916.0,1694,0.62317097,-6.5005226,94.044434,280.92334,17.6856,365.075,-42.5377,-28.538,48.8497,42.7913
1980-04-29 06:31:24,1,4.325,-1.925,7.65,0.425735,1,1,162547.0,115912.0,1694,0.62316293,-6.5005894,94.029297,280.92383,18.7765,364.454,-43.9048,-25.5474,51.8022,43.7444
1980-04-29 06:32:45,1,5.5,-2.95,6.775,0.558458,1,1,148444.0,109865.0,1694,0.62315494,-6.5006561,94.018066,280.92432,18.1038,357.214,-38.942,-22.3447,49.5039,42.5881
1980-04-29 06:34:06,1,4.2875,-3.675,6.725,1.06529,1,1,133730.0,118392.0,1694,0.6231389,-6.5007896,94.007324,280.92529,18.5008,358.406,-36.8807,-26.2784,46.9863,44.2098
1980-04-29 06:35:27,1,3.84286,-2.92857,7.1,2.76745,1,1,162808.0,118224.0,1694,0.62313086,-6.5008564,93.996338,280.92603,17.9719,370.922,-44.3969,-29.1175,51.8436,44.1785
1980-04-29 06:36:48,1,6.2,-4.51429,5.82857,0.475523,1,1,114521.0,108514.0,1694,0.62312281,-6.5009232,93.985107,280.92651,17.7745,354.956,-32.6395,-16.0678,43.4812,42.3254
1980-04-29 06:38:09,1,5.1,-3.81429,7.4,0.247436,1,1,122779.0,105709.0,1694,0.62310678,-6.5010567,93.974365,280.92749,17.1396,363.125,-36.4381,-21.8778,45.0215,41.7748
1980-04-29 06:39:30,1,5.62857,-2.94286,6.5,0.485714,1,1,127111.0,105940.0,1694,0.62309873,-6.5011234,93.959229,280.92798,17.7671,359.269,-38.2084,-23.0296,45.8088,41.8204
1980-04-29 06:40:51,1,5.34286,-3.31429,5.94286,0.307724,1,1,146456.0,111890.0,1694,0.62309074,-6.5011902,93.948242,280.92871,16.8973,357.76,-36.7223,-20.6091,49.1713,42.9787
1980-04-29 06:42:12,1,6.65714,-1.47143,3.17143,1.20509,1,1,193365.0,102374.0,1694,0.62307471,-6.5013227,93.9375,280.92969,18.2781,351.588,-41.8304,-12.6011,56.4998,41.1105
1980-04-29 06:43:33,1,6.43333,-2.13333,4.46667,0.565685,1,1,139089.0,114375.0,1694,0.62306666,-6.5013895,93.92627,280.93018,17.6726,354.863,-37.5017,-18.5595,47.9187,43.4533
1980-04-29 06:44:54,1,5.2625,0.125,6.275,1.48529,1,1,132676.0,102656.0,1694,0.62305862,-6.5014563,93.915039,280.93066,17.1367,353.672,-53.8053,-13.7235,46.8009,41.1671
1980-04-29 06:46:15,1,4.14286,-1.48571,8.35714,0.437992,1,1,114639.0,98754.6,1694,0.62304258,-6.5015898,93.904541,280.93188,16.1577,362.52,-43.9753,-28.7505,43.5034,40.3772
1980-04-29 06:47:36,1,4.0,-0.6,7.92857,0.577468,1,1,126173.0,109159.0,1694,0.62303454,-6.5016565,93.889404,280.93237,18.2082,365.482,-43.0879,-27.4859,45.6394,42.4511
1980-04-29 06:48:57,1,3.4,-0.157143,8.58571,0.298978,1,1,129974.0,102265.0,1694,0.62302655,-6.5017233,93.878174,280.93286,16.5141,367.755,-43.4706,-24.9643,46.3218,41.0886
1980-04-29 06:50:18,1,3.9875,-0.15,6.575,0.378112,1,1,168940.0,106322.0,1694,0.62301052,-6.5018568,93.867676,280.93408,16.7018,364.037,-48.3608,-28.0116,52.8109,41.8957
1980-04-29 06:51:39,1,6.05714,-1.52857,3.44286,2.54133,1,1,123091.0,132056.0,1694,0.62300247,-6.5019236,93.856445,280.93457,17.5225,351.157,-44.5136,-17.1095,45.0786,46.6915
1980-04-29 06:53:00,1,7.34286,-1.71429,4.65714,0.378504,1,1,114544.0,99857.1,1694,0.62298644,-6.5020571,93.845703,280.93555,16.5735,353.103,-40.4467,-15.5771,43.4854,40.602
1980-04-29 06:54:21,1,7.6625,-1.525,3.9,0.681336,1,1,106719.0,103295.0,1694,0.62297839,-6.5021238,93.834473,280.93604,16.165,355.223,-38.0733,-14.3224,41.9739,41.2949
1980-04-29 06:55:42,1,7.4125,-0.875,4.15,0.357727,1,1,121768.0,102775.0,1694,0.6229704,-6.5021906,93.81958,280.93677,16.7661,354.211,-43.0784,-12.9762,44.8357,41.1909
1980-04-29 06:57:03,1,6.3,-0.514286,5.35714,0.390186,1,1,133837.0,103425.0,1694,0.62295431,-6.5023241,93.808838,280.93774,16.4999,361.107,-44.0091,-20.3312,47.0052,41.3209
1980-04-29 06:58:24,1,6.57143,-1.42857,5.24286,0.435187,1,1,122362.0,105546.0,1694,0.62294632,-6.5023909,93.797607,280.93823,16.5161,357.811,-40.5911,-17.1937,44.9451,41.7426
1980-04-29 06:59:45,1,6.48571,0.528571,5.11429,0.673098,1,1,146315.0,102709.0,1694,0.62293828,-6.5024576,93.786377,280.93872,17.3218,353.821,-48.1337,-15.8978,49.1476,41.1777
1980-04-29 07:01:06,1,4.97143,-0.857143,5.91429,0.547723,1,1,183615.0,102660.0,1694,0.62292224,-6.5025902,93.775879,280.93994,17.5963,360.286,-41.5925,-20.9608,55.0569,41.168
1980-04-29 07:02:27,-1,nan,nan,nan,nan,1,-3,nan,nan,1694,0.6229142,-6.5026569,93.764648,280.94043,nan,353.287,-50.0605,40.2406,nan,nan
1980-04-29 07:03:48,1,6.45714,0.4,-5.35714,0.525668,1,1,128169.0,94594.1,1694,0.62290615,-6.5027237,93.749512,280.94092,17.4608,350.98,-46.1924,15.7959,45.9991,39.5175
1980-04-29 07:05:09,1,5.275,-0.375,-7.325,0.923648,1,1,108896.0,114155.0,1694,0.62289011,-6.5028572,93.739014,280.94214,18.0839,355.603,-47.8022,19.0092,42.3998,43.4116
1980-04-29 07:06:30,1,3.25714,-1.95714,-8.78571,0.733179,1,1,114058.0,98923.1,1694,0.62288207,-6.502924,93.727783,280.94263,15.619,359.3,-40.7372,24.8311,43.3931,40.4117
1980-04-29 07:07:51,1,4.67143,-1.81429,-7.81429,0.960017,1,1,107104.0,97286.4,1694,0.62287402,-6.5029907,93.716553,280.94312,15.9541,357.694,-38.9935,24.08,42.0496,40.076
1980-04-29 07:09:12,1,4.82857,2.35714,5.65714,1.07627,1,1,249948.0,91247.6,1694,0.62285799,-6.5031242,93.705811,280.94409,21.9602,353.433,-57.7407,-31.5124,64.2367,38.8122
1980-04-29 07:10:33,1,4.21429,3.32857,5.44286,0.552914,1,1,150687.0,102942.0,1694,0.62284994,-6.503191,93.690918,280.94482,17.3224,359.333,-58.2159,-19.8358,49.8765,41.2244
1980-04-29 07:11:54,1,4.68571,4.52857,3.4,0.875284,1,1,155137.0,89228.5,1694,0.62284189,-6.5032578,93.679688,280.94531,16.546,354.809,-59.1504,-11.9898,50.6076,38.3804
1980-04-29 07:13:15,1,6.32857,1.45714,4.35714,0.69576,1,1,117314.0,100938.0,1694,0.62282586,-6.5033913,93.668945,280.94629,16.8235,352.957,-49.2488,-19.0759,44.0081,40.8212
1980-04-29 07:14:36,1,7.28571,-2.01429,3.32857,0.436124,1,1,158383.0,98823.6,1694,0.62281781,-6.503458,93.657715,280.94678,18.7041,347.238,-38.7357,-11.1136,51.1343,40.3913
1980-04-29 07:15:57,1,7.42857,-2.07143,2.54286,0.983123,1,1,119860.0,109090.0,1694,0.62280977,-6.5035248,93.646729,280.94751,17.2085,345.103,-37.6303,-10.3294,44.4832,42.4376
1980-04-29 07:17:18,1,7.5625,0.35,1.8125,2.6909,1,1,132220.0,107169.0,1694,0.62279373,-6.5036583,93.635986,280.94849,17.5196,348.247,-42.8312,-8.94633,46.7204,42.0622
1980-04-29 07:18:39,1,8.44286,2.51429,0.671429,0.453557,1,1,101700.0,108836.0,1694,0.62278569,-6.5037251,93.62085,280.94897,16.7945,347.606,-52.796,-7.04727,40.975,42.3882
1980-04-29 07:20:00,1,8.61429,1.22857,0.385714,0.30034,1,1,124344.0,113386.0,1694,0.62276965,-6.5038576,93.610352,280.9502,18.692,346.596,-46.9268,-3.08029,45.3076,43.2651
1980-04-29 07:21:21,1,8.2,-0.728571,-1.07143,2.34851,1,1,98777.7,111582.0,1694,0.62276161,-6.5039244,93.599121,280.95068,17.9377,348.78,-43.9141,-7.31694,40.382,42.9195
1980-04-29 07:22:42,1,4.5,-4.44286,-7.02857,1.20661,1,1,125156.0,102419.0,1694,0.62275356,-6.5039911,93.587891,280.95117,17.5704,355.195,-31.0068,22.9513,45.4551,41.1195
1980-04-29 07:24:03,1,4.6,-3.21429,-7.35714,0.519026,1,1,139552.0,112952.0,1694,0.62273753,-6.5041246,93.577148,280.95215,17.7203,356.29,-32.9693,24.006,47.9983,43.1821
1980-04-29 07:25:24,1,5.25714,-3.44286,-7.0,0.91607,1,1,116275.0,115104.0,1694,0.62272948,-6.5041914,93.566162,280.95288,18.493,354.646,-34.4212,21.8698,43.8127,43.5917
1980-04-29 07:26:45,1,4.77143,-4.52857,-4.75714,3.49624,1,1,122782.0,108666.0,1694,0.62272143,-6.5042582,93.551025,280.95337,17.0867,355.131,-27.2493,19.3348,45.0221,42.355
1980-04-29 07:28:06,1,5.8,-7.85714,0.757143,0.848047,1,1,116676.0,101174.0,1694,0.6227054,-6.5043917,93.540283,280.95435,16.7879,354.427,-18.6903,-7.58171,43.8882,40.8689
1980-04-29 07:29:27,1,6.81667,-6.83333,-0.75,0.74796,1,1,103674.0,102321.0,1694,0.62269735,-6.5044584,93.529053,280.95483,17.183,348.189,-24.2021,2.0555,41.3707,41.0998
1980-04-29 07:30:48,1,4.67143,-8.15714,0.128571,1.95177,1,1,118995.0,107622.0,1694,0.62268931,-6.5045252,93.518066,280.95557,16.731,354.233,-16.3717,-7.65748,44.3224,42.151
1980-04-29 07:32:09,1,5.9,-6.2,-3.98571,1.2811,1,1,103404.0,99836.9,1694,0.62267327,-6.5046587,93.507324,280.95654,16.0711,352.681,-18.1266,4.78861,41.3167,40.5979
1980-04-29 07:33:30,1,6.2,-6.94286,-3.25714,0.945235,1,1,108367.0,99832.7,1694,0.62266523,-6.5047255,93.496094,280.95703,16.6373,348.978,-19.4352,11.983,42.2968,40.597
1980-04-29 07:34:51,1,6.15,-7.15,-4.46667,0.57494,1,1,82480.1,88544.3,1694,0.62265724,-6.5047922,93.480957,280.95752,14.673,348.795,-20.6235,19.3821,36.9005,38.233
1980-04-29 07:36:12,1,6.0,-7.11429,-4.65714,0.363655,1,1,99125.1,97212.3,1694,0.62264115,-6.5049257,93.470459,280.95874,16.3736,347.295,-19.6082,18.6494,40.4529,40.0607
1980-04-29 07:37:33,1,5.87143,-7.58571,-4.3,0.307724,1,1,83245.6,97136.3,1694,0.6226331,-6.5049925,93.459229,280.95923,15.473,347.706,-14.5904,13.5348,37.0714,40.045
1980-04-29 07:38:54,1,5.45,-6.1625,-6.15,0.504821,1,1,99776.5,86990.2,1694,0.62262511,-6.5050592,93.447998,280.95972,14.8391,351.638,-23.325,22.4309,40.5856,37.896
1980-04-29 07:40:15,1,6.32857,-6.91429,-2.9,2.25588,1,1,88657.0,93200.0,1694,0.62260902,-6.5051928,93.4375,280.96094,16.0774,349.956,-22.2158,20.8155,38.2573,39.2253
1980-04-29 07:41:36,1,7.25714,-7.18571,1.47143,0.389138,1,1,87201.6,104122.0,1694,0.62260097,-6.5052586,93.42627,280.96143,16.1685,344.57,-19.711,-12.7382,37.942,41.46
1980-04-29 07:42:57,1,6.6,-8.28571,0.614286,0.575344,1,1,85942.0,97287.7,1694,0.62259299,-6.5053253,93.411133,280.96191,15.9203,347.949,-13.6244,-4.96918,37.667,40.0762
1980-04-29 07:44:18,1,7.15714,-7.35714,-1.04286,0.601359,1,1,113327.0,105095.0,1694,0.62257689,-6.5054588,93.400391,280.96289,16.9491,347.487,-18.2811,3.03403,43.2538,41.6533
1980-04-29 07:45:39,1,7.2,-6.02857,-2.9,1.54893,1,1,93422.7,92595.9,1694,0.62256885,-6.5055256,93.389404,280.96362,15.535,344.507,-23.0942,7.85873,39.2721,39.0979
1980-04-29 07:47:00,1,7.24286,-6.62857,-2.01429,0.311677,1,1,99927.4,91051.8,1694,0.62255281,-6.5056591,93.378662,280.9646,16.6674,343.572,-21.9028,1.67224,40.6163,38.7706
1980-04-29 07:48:21,1,6.35,-7.68333,-2.11667,0.897373,1,1,98012.6,94569.9,1694,0.62254477,-6.5057259,93.367432,280.96509,16.2802,351.531,-13.306,7.64956,40.2253,39.5125
1980-04-29 07:49:42,1,7.5,-6.275,0.95,0.376663,1,1,88107.6,102436.0,1694,0.62253678,-6.5057926,93.352295,280.96558,15.7597,342.177,-18.9858,-4.04967,38.1386,41.1229
1980-04-29 07:51:03,1,7.5,-6.22857,0.614286,0.316872,1,1,96001.7,97223.1,1694,0.62252069,-6.5059261,93.341797,280.9668,15.4274,344.539,-21.4492,-6.15413,39.8105,40.0629
1980-04-29 07:52:24,1,7.6,-5.77143,0.914286,0.298294,1,1,116215.0,99312.9,1694,0.62251264,-6.5059929,93.330566,280.96729,17.8783,342.48,-19.7594,-4.17053,43.8015,40.4912
1980-04-29 07:53:45,1,7.55714,-6.0,0.228571,1.43285,1,1,89756.3,96065.7,1694,0.62250465,-6.5060596,93.319336,280.96777,16.1526,343.59,-25.2004,-13.1468,38.4938,39.8237
1980-04-29 07:58:27,1,7.51111,-6.01111,-1.91111,0.450514,1,1,94196.2,93567.9,1694,0.62247998,-6.4605675,93.188293,280.8797,16.4208,341.636,-19.5419,3.5934,39.4343,39.3026
1980-04-29 07:59:44,1,7.76923,-5.71538,-0.384615,0.619028,1,1,96762.5,95177.2,1694,0.62245643,-6.5064602,93.267822,280.97095,15.5518,344.876,-18.8814,4.31596,39.9679,39.6392
1980-04-29 07:59:48,1,7.82667,-5.67333,-0.34,0.53133,1,1,101572.0,92658.3,1694,0.62245643,-6.5064602,93.267822,280.97095,16.5436,340.566,-19.1767,0.602488,40.9491,39.1111
1980-04-29 07:59:49,1,7.84286,-5.67143,-0.278571,0.491821,1,1,78977.4,100285.0,1694,0.62245643,-6.5064602,93.267822,280.97095,15.1611,340.623,-24.1072,-9.12987,36.1085,40.6889
1980-04-29 08:00:29,1,7.46429,-5.67857,-2.78571,0.831215,1,1,100345.0,90238.1,1694,0.62244838,-6.5065269,93.260742,280.97168,15.9299,338.415,-21.9487,0.686231,40.701,38.5969
1980-04-29 08:01:10,1,4.38462,-5.05385,-7.33077,0.422167,1,1,80480.6,95612.4,1694,0.6224404,-6.5065928,93.257324,280.97217,14.2715,351.287,-23.3715,24.9582,36.4505,39.7297
1980-04-29 08:01:50,1,5.56429,-5.6,-5.75,0.991649,1,1,90009.0,101830.0,1694,0.6224404,-6.5065928,93.249512,280.97217,14.7613,343.867,-19.4744,12.2886,38.5479,41.0011
1980-04-29 08:02:31,1,5.39286,-5.71429,-6.2,0.431478,1,1,73287.5,101258.0,1694,0.62243235,-6.5066595,93.242188,280.97266,14.4593,345.74,-22.9415,18.2911,34.7835,40.8858
1980-04-29 08:03:11,1,6.14,-6.50667,-5.33333,0.436552,1,1,78677.5,93763.0,1694,0.6224243,-6.5067263,93.23877,280.97314,15.0482,347.068,-17.1772,11.603,36.0399,39.3436
1980-04-29 08:03:52,1,5.38571,-6.14286,-6.34286,0.463351,1,1,72029.0,92135.6,1694,0.6224243,-6.5067263,93.230957,280.97314,14.9682,349.391,-19.0718,18.2144,34.4835,39.0006
1980-04-29 08:04:32,1,5.79333,-6.0,-5.62667,0.496566,1,1,84996.6,95481.8,1694,0.62241626,-6.506793,93.227539,280.97363,14.9891,348.801,-18.4328,15.4966,37.4592,39.7025
1980-04-29 08:05:13,1,6.06154,-6.34615,-5.21538,0.457417,1,1,83560.9,95201.1,1694,0.62240827,-6.5068598,93.220459,280.97437,14.8868,347.281,-18.5944,14.0327,37.1415,39.6441
1980-04-29 08:05:53,1,5.88571,-6.49286,-5.31429,0.39853,1,1,90912.6,95530.7,1694,0.62240821,-6.5068598,93.212646,280.97437,15.3881,346.095,-17.4387,12.0085,38.7409,39.7127
1980-04-29 08:06:34,1,5.82857,-7.05714,-5.31429,0.801784,1,1,86039.0,96061.0,1694,0.62240022,-6.5069256,93.209229,280.97485,15.6409,346.725,-17.9215,11.9336,37.6882,39.8228
1980-04-29 08:07:14,1,5.85,-6.57857,-5.85714,0.471537,1,1,80010.8,96559.0,1694,0.62239218,-6.5069923,93.201904,280.97534,15.6138,346.386,-19.3277,10.5464,36.344,39.9259
1980-04-29 08:07:55,1,6.47857,-5.56429,-5.81429,0.44983,1,1,80891.4,95626.8,1694,0.62239218,-6.5069923,93.197998,280.97534,15.542,346.233,-23.5896,10.7299,36.5434,39.7327
1980-04-29 08:08:35,1,6.52,-5.68667,-5.71333,0.590969,1,1,85429.3,93922.6,1694,0.62238413,-6.5070591,93.190674,280.97583,15.8442,347.254,-22.6683,11.0366,37.5544,39.377
1980-04-29 08:09:16,1,6.60769,-5.41538,-5.71538,0.301672,1,1,70365.5,92063.5,1694,0.62237608,-6.5071259,93.187256,280.97632,14.7726,345.119,-24.0007,10.6816,34.083,38.9854
1980-04-29 08:09:56,1,6.27333,-5.60667,-6.00667,0.632877,1,1,81468.2,94322.0,1694,0.62237608,-6.5071259,93.179443,280.97632,15.2833,345.746,-25.9865,13.7729,36.6735,39.4607
1980-04-29 08:10:37,1,6.43077,-5.57692,-5.83846,0.346581,1,1,77023.7,91924.5,1694,0.62236804,-6.5071926,93.172363,280.97705,14.7578,346.2,-24.6422,12.3045,35.6591,38.9559
1980-04-29 08:11:17,1,6.24286,-5.75,-6.09286,0.434131,1,1,83274.4,99884.1,1694,0.62236005,-6.5072594,93.168945,280.97754,15.4503,346.866,-22.8154,15.0341,37.0778,40.6075
1980-04-29 08:11:58,1,5.67857,-7.20714,-5.17857,0.618548,1,1,77599.1,93875.7,1694,0.62236005,-6.5072594,93.161133,280.97754,15.2352,347.686,-18.2464,10.1693,35.792,39.3672
1980-04-29 08:12:38,1,5.58571,-7.2,-5.1,0.624336,1,1,95717.2,98421.6,1694,0.622352,-6.5073252,93.157715,280.97803,15.4386,349.951,-17.863,12.7451,39.7515,40.3091
1980-04-29 08:13:19,1,5.65,-5.50714,-6.62143,0.669107,1,1,87175.0,84151.9,1694,0.62234396,-6.5073919,93.150391,280.97852,15.1441,350.939,-25.2955,17.6522,37.9362,37.2726
1980-04-29 08:13:59,1,5.86,-5.72,-6.24667,0.828546,1,1,78678.9,94044.1,1694,0.62234396,-6.5073919,93.142578,280.97852,15.1747,347.837,-27.849,16.2473,36.0402,39.4025
1980-04-29 08:14:40,1,5.94615,-5.68462,-6.24615,0.418931,1,1,73384.9,90891.0,1694,0.62233591,-6.5074587,93.13916,280.979,14.6444,346.147,-23.1609,14.4768,34.8066,38.7363
1980-04-29 08:15:20,1,6.06429,-4.72143,-6.42857,0.90807,1,1,81285.8,91630.5,1694,0.62232792,-6.5075254,93.13208,280.97974,15.0222,347.353,-23.8789,15.9509,36.6324,38.8936
1980-04-29 08:16:01,1,6.6,-4.53571,-5.05,1.65588,1,1,87066.7,91759.9,1694,0.62231988,-6.5075922,93.128662,280.98022,14.5225,345.231,-31.056,18.5592,37.9126,38.921
1980-04-29 08:16:41,1,5.71429,-5.77143,-4.33571,4.07201,1,1,93623.6,95311.0,1694,0.62231988,-6.5075922,93.12085,280.98022,14.7169,353.011,-35.1427,28.064,39.3143,39.667
1980-04-29 08:17:22,1,6.13333,-7.74,-2.67333,1.23501,1,1,83823.8,97778.2,1694,0.62231183,-6.507658,93.113525,280.98071,14.0131,341.865,-15.4257,2.99714,37.1999,40.1771
1980-04-29 08:18:02,1,5.87692,-8.47692,-0.0615385,1.71457,1,1,62463.2,94509.2,1694,0.62230378,-6.5077248,93.110107,280.9812,13.1158,338.275,-10.9947,14.5894,32.1122,39.4998
1980-04-29 08:18:43,1,3.16429,-8.59286,5.45,2.24048,1,1,87934.4,99176.3,1694,0.62230378,-6.5077248,93.102295,280.9812,14.5306,350.514,-14.1825,-15.1507,38.1011,40.4633
1980-04-29 08:19:23,1,6.07143,-8.6,1.46429,0.992137,1,1,72918.5,95189.9,1694,0.62229574,-6.5077915,93.098877,280.98169,13.4591,339.215,-12.522,-1.4694,34.6958,39.6418
1980-04-29 08:20:04,1,5.9,-8.88462,1.91538,0.986597,1,1,66153.6,99298.5,1694,0.62228775,-6.5078583,93.091797,280.98242,14.3162,344.471,-10.7663,-3.68963,33.0472,40.4883
1980-04-29 08:20:44,1,4.40769,-8.13846,5.47692,0.746431,1,1,72215.3,95838.1,1694,0.62228769,-6.5078583,93.087891,280.98242,13.9513,353.147,-14.039,-23.1209,34.5281,39.7765
1980-04-29 08:21:25,1,5.11538,-9.62308,2.35385,0.95161,1,1,71474.3,88474.7,1694,0.6222797,-6.507925,93.080566,280.98291,13.7356,349.737,-6.73894,-13.16,34.3505,38.218
1980-04-29 08:22:05,1,5.65,-9.07857,1.75714,0.984627,1,1,77851.3,96028.3,1694,0.62227166,-6.5079908,93.073242,280.9834,14.3313,349.389,-7.10199,-5.47537,35.8501,39.816
1980-04-29 08:22:46,1,5.4,-9.41538,2.03077,1.16304,1,1,76352.9,92020.1,1694,0.62227166,-6.5079918,93.069336,280.9834,12.8281,349.435,-11.2885,-4.43979,35.5035,38.9762
1980-04-29 08:23:26,1,6.36429,-7.42857,3.29286,0.703562,1,1,78083.2,86240.5,1694,0.62226361,-6.5080576,93.062012,280.98389,13.6934,344.071,-15.671,-14.8451,35.9035,37.7323
1980-04-29 08:24:07,1,4.28571,-9.96429,2.92143,1.51688,1,1,71983.1,96590.7,1694,0.62225556,-6.5081244,93.058594,280.98438,13.7526,354.805,-3.28112,-14.5334,34.4725,39.9324
1980-04-29 08:24:47,1,4.08667,-10.12,3.15333,0.812349,1,1,67086.1,85550.6,1694,0.62225556,-6.5081244,93.050781,280.98438,12.8902,354.736,-5.98826,-12.5904,33.2793,37.5811
1980-04-29 08:25:28,1,4.79286,-9.50714,3.60714,0.596888,1,1,68233.7,99252.8,1694,0.62224752,-6.5081911,93.043701,280.98511,12.8857,353.19,-7.59718,-15.1794,33.5627,40.479
1980-04-29 08:26:08,1,3.82667,-10.14,2.88667,0.739489,1,1,79634.7,89068.9,1694,0.62223953,-6.5082579,93.040283,280.9856,13.7601,350.511,-7.90989,-11.7765,36.2584,38.3461
1980-04-29 08:26:49,1,4.43846,-9.71538,3.57692,1.05067,1,1,80995.9,87921.1,1694,0.62223953,-6.5082579,93.032471,280.9856,12.6992,354.392,-8.51947,-14.4359,36.567,38.0982